| time (UTC) | temp F | wind direction | speed MPH | gust MPH | rain 1hr in | rain 24hr in | rain mn in | humidity % | barometer mb |
| 20260906195021 | 71 | 318 | 4.0 | 6.0 | 0.00 | 0.00 | 0.00 | 53 | 1014.6 |
| 20260906194519 | 71 | 9 | 2.0 | 6.0 | 0.00 | 0.00 | 0.00 | 53 | 1014.6 |
| 20260906194027 | 70 | 315 | 2.0 | 9.0 | 0.00 | 0.00 | 0.00 | 54 | 1014.7 |
| 20260906193538 | 70 | 306 | 4.0 | 9.0 | 0.00 | 0.00 | 0.00 | 56 | 1014.6 |
| 20260906193033 | 70 | 333 | 4.0 | 9.0 | 0.00 | 0.00 | 0.00 | 56 | 1014.6 |
| 20260906192528 | 69 | 69 | 3.0 | 9.0 | 0.00 | 0.00 | 0.00 | 55 | 1014.8 |
| 20260906192036 | 69 | 319 | 3.0 | 9.0 | 0.00 | 0.00 | 0.00 | 57 | 1014.8 |
| 20260906191532 | 69 | 360 | 3.0 | 6.0 | 0.00 | 0.00 | 0.00 | 59 | 1014.9 |
| 20260906191020 | 68 | 349 | 3.0 | 6.0 | 0.00 | 0.00 | 0.00 | 60 | 1015.2 |
| 20260906190530 | 67 | 19 | 3.0 | 9.0 | 0.00 | 0.00 | 0.00 | 61 | 1015.2 |
| 20260906190027 | 68 | 13 | 4.0 | 9.0 | 0.00 | 0.00 | 0.00 | 59 | 1015.3 |
| 20260906185542 | 68 | 53 | 3.0 | 8.0 | 0.00 | 0.00 | 0.00 | 60 | 1015.4 |
| 20260906185026 | 67 | 5 | 3.0 | 8.0 | 0.00 | 0.00 | 0.00 | 61 | 1015.6 |
| 20260906184525 | 67 | 22 | 3.0 | 8.0 | 0.00 | 0.00 | 0.00 | 62 | 1015.6 |
| 20260906184034 | 67 | 13 | 4.0 | 8.0 | 0.00 | 0.00 | 0.00 | 61 | 1015.6 |
| 20260906183521 | 67 | 37 | 4.0 | 9.0 | 0.00 | 0.00 | 0.00 | 61 | 1015.6 |
| 20260906183039 | 66 | 355 | 3.0 | 9.0 | 0.00 | 0.00 | 0.00 | 64 | 1015.7 |
| 20260906182524 | 66 | 37 | 4.0 | 8.0 | 0.00 | 0.00 | 0.00 | 62 | 1015.7 |
| 20260906182035 | 66 | 349 | 4.0 | 8.0 | 0.00 | 0.00 | 0.00 | 64 | 1015.7 |
| 20260906181529 | 65 | 30 | 3.0 | 9.0 | 0.00 | 0.00 | 0.00 | 63 | 1015.7 |
| 20260906181022 | 65 | 324 | 4.0 | 9.0 | 0.00 | 0.00 | 0.00 | 64 | 1015.9 |
| 20260906180537 | 65 | 355 | 4.0 | 10.0 | 0.00 | 0.00 | 0.00 | 64 | 1016.0 |
| 20260906180026 | 65 | 324 | 4.0 | 11.0 | 0.00 | 0.00 | 0.00 | 65 | 1016.1 |
| 20260906175540 | 64 | 323 | 6.0 | 11.0 | 0.00 | 0.00 | 0.00 | 65 | 1016.1 |
| 20260906175026 | 64 | 343 | 3.0 | 12.0 | 0.00 | 0.00 | 0.00 | 68 | 1016.2 |
| 20260906174521 | 63 | 336 | 5.0 | 12.0 | 0.00 | 0.00 | 0.00 | 67 | 1016.1 |
| 20260906174036 | 63 | 9 | 8.0 | 12.0 | 0.00 | 0.00 | 0.00 | 66 | 1016.1 |
| 20260906173520 | 63 | 331 | 7.0 | 14.0 | 0.00 | 0.00 | 0.00 | 67 | 1016.3 |
| 20260906173017 | 63 | 306 | 6.0 | 11.0 | 0.00 | 0.00 | 0.00 | 67 | 1016.3 |
| 20260906172528 | 63 | 17 | 4.0 | 11.0 | 0.00 | 0.00 | 0.00 | 67 | 1016.4 |
| 20260906172037 | 63 | 9 | 3.0 | 8.0 | 0.00 | 0.00 | 0.00 | 70 | 1016.3 |
| 20260906171530 | 62 | 324 | 4.0 | 8.0 | 0.00 | 0.00 | 0.00 | 68 | 1016.3 |
| 20260906171038 | 62 | 27 | 3.0 | 9.0 | 0.00 | 0.00 | 0.00 | 70 | 1016.5 |
| 20260906170531 | 61 | 328 | 4.0 | 10.0 | 0.00 | 0.00 | 0.00 | 70 | 1016.5 |
| 20260906170030 | 61 | 349 | 5.0 | 10.0 | 0.00 | 0.00 | 0.00 | 70 | 1016.6 |
| 20260906165536 | 61 | 336 | 4.0 | 10.0 | 0.00 | 0.00 | 0.00 | 70 | 1016.6 |
| 20260906165025 | 61 | 313 | 4.0 | 10.0 | 0.00 | 0.00 | 0.00 | 71 | 1016.7 |
| 20260906164523 | 61 | 11 | 3.0 | 9.0 | 0.00 | 0.00 | 0.00 | 70 | 1016.7 |
| 20260906164030 | 61 | 18 | 4.0 | 9.0 | 0.00 | 0.00 | 0.00 | 71 | 1016.7 |
| 20260906163520 | 61 | 355 | 1.0 | 9.0 | 0.00 | 0.00 | 0.00 | 71 | 1016.8 |
| 20260906163038 | 60 | 329 | 4.0 | 10.0 | 0.00 | 0.00 | 0.00 | 71 | 1016.8 |
| 20260906162530 | 60 | 328 | 6.0 | 10.0 | 0.00 | 0.00 | 0.00 | 71 | 1016.8 |
| 20260906162037 | 60 | 28 | 2.0 | 10.0 | 0.00 | 0.00 | 0.00 | 72 | 1016.9 |
| 20260906161541 | 60 | 350 | 4.0 | 10.0 | 0.00 | 0.00 | 0.00 | 72 | 1016.8 |
| 20260906161020 | 60 | 34 | 3.0 | 11.0 | 0.00 | 0.00 | 0.00 | 73 | 1016.8 |
| 20260906160531 | 59 | 5 | 3.0 | 10.0 | 0.00 | 0.00 | 0.00 | 73 | 1016.7 |
| 20260906160027 | 59 | 345 | 3.0 | 6.0 | 0.00 | 0.00 | 0.00 | 72 | 1016.7 |
| 20260906155519 | 59 | 18 | 2.0 | 8.0 | 0.00 | 0.00 | 0.00 | 74 | 1016.8 |
| 20260906155028 | 58 | 336 | 4.0 | 8.0 | 0.00 | 0.00 | 0.00 | 74 | 1016.9 |
| 20260906154538 | 58 | 350 | 2.0 | 6.0 | 0.00 | 0.00 | 0.00 | 75 | 1016.9 |
| 20260906154034 | 58 | 325 | 3.0 | 5.0 | 0.00 | 0.00 | 0.00 | 74 | 1017.0 |
| 20260906153523 | 57 | 5 | 2.0 | 5.0 | 0.00 | 0.00 | 0.00 | 76 | 1017.2 |
| 20260906153019 | 57 | 37 | 2.0 | 5.0 | 0.00 | 0.00 | 0.00 | 76 | 1017.2 |
| 20260906152529 | 56 | 325 | 3.0 | 6.0 | 0.00 | 0.00 | 0.00 | 76 | 1017.3 |
| 20260906152036 | 56 | 82 | 1.0 | 6.0 | 0.00 | 0.00 | 0.00 | 78 | 1017.3 |
| 20260906151531 | 56 | 15 | 4.0 | 6.0 | 0.00 | 0.00 | 0.00 | 77 | 1017.3 |
| 20260906151023 | 55 | 5 | 2.0 | 6.0 | 0.00 | 0.00 | 0.00 | 79 | 1017.5 |
| 20260906150529 | 55 | 317 | 0.0 | 4.0 | 0.00 | 0.00 | 0.00 | 81 | 1017.5 |
| 20260906150023 | 54 | 76 | 1.0 | 3.0 | 0.00 | 0.00 | 0.00 | 81 | 1017.5 |
| 20260906145535 | 54 | 59 | 1.0 | 3.0 | 0.00 | 0.00 | 0.00 | 81 | 1017.6 |
| 20260906145022 | 53 | 62 | 0.0 | 3.0 | 0.00 | 0.00 | 0.00 | 82 | 1017.6 |
| 20260906144539 | 53 | 94 | 1.0 | 3.0 | 0.00 | 0.00 | 0.00 | 82 | 1017.6 |
| 20260906144031 | 53 | 86 | 1.0 | 3.0 | 0.00 | 0.00 | 0.00 | 83 | 1017.6 |
| 20260906143521 | 52 | 80 | 0.0 | 2.0 | 0.00 | 0.00 | 0.00 | 83 | 1017.7 |
| 20260906143038 | 52 | 72 | 1.0 | 2.0 | 0.00 | 0.00 | 0.00 | 84 | 1017.6 |
| 20260906142529 | 51 | 76 | 0.0 | 2.0 | 0.00 | 0.00 | 0.00 | 85 | 1017.6 |
| 20260906142036 | 51 | 88 | 0.0 | 3.0 | 0.00 | 0.00 | 0.00 | 85 | 1017.7 |
| 20260906141534 | 50 | 87 | 1.0 | 3.0 | 0.00 | 0.00 | 0.00 | 86 | 1017.6 |
| 20260906141022 | 50 | 67 | 1.0 | 3.0 | 0.00 | 0.00 | 0.00 | 87 | 1017.6 |
| 20260906140531 | 50 | 72 | 0.0 | 2.0 | 0.00 | 0.00 | 0.00 | 87 | 1017.6 |
| 20260906140034 | 49 | 72 | 1.0 | 3.0 | 0.00 | 0.00 | 0.00 | 87 | 1017.6 |
| 20260906135537 | 49 | 64 | 1.0 | 4.0 | 0.00 | 0.00 | 0.00 | 87 | 1017.5 |
| 20260906135026 | 49 | 76 | 2.0 | 4.0 | 0.00 | 0.00 | 0.00 | 87 | 1017.4 |
| 20260906134521 | 49 | 69 | 2.0 | 4.0 | 0.00 | 0.00 | 0.00 | 88 | 1017.4 |
| 20260906134034 | 49 | 48 | 0.0 | 1.0 | 0.00 | 0.00 | 0.00 | 89 | 1017.3 |
| 20260906133524 | 49 | 48 | 0.0 | 1.0 | 0.00 | 0.00 | 0.00 | 89 | 1017.4 |
| 20260906133024 | 49 | 70 | 0.0 | 1.0 | 0.00 | 0.00 | 0.00 | 89 | 1017.4 |
| 20260906132531 | 49 | 73 | 0.0 | 3.0 | 0.00 | 0.00 | 0.00 | 88 | 1017.4 |
| 20260906132019 | 49 | 73 | 1.0 | 3.0 | 0.00 | 0.00 | 0.00 | 88 | 1017.4 |
| 20260906131537 | 49 | 74 | 1.0 | 3.0 | 0.00 | 0.00 | 0.00 | 88 | 1017.4 |
| 20260906131022 | 49 | 78 | 1.0 | 4.0 | 0.00 | 0.00 | 0.00 | 86 | 1017.5 |
| 20260906130533 | 50 | 78 | 3.0 | 4.0 | 0.00 | 0.00 | 0.00 | 85 | 1017.4 |
| 20260906130043 | 50 | 92 | 0.0 | 1.0 | 0.00 | 0.00 | 0.00 | 84 | 1017.5 |
| 20260906125535 | 50 | 77 | 0.0 | 4.0 | 0.00 | 0.01 | 0.00 | 84 | 1017.5 |
| 20260906125026 | 50 | 62 | 1.0 | 4.0 | 0.00 | 0.01 | 0.00 | 85 | 1017.5 |
| 20260906124522 | 50 | 68 | 0.0 | 3.0 | 0.00 | 0.01 | 0.00 | 85 | 1017.6 |
| 20260906124030 | 50 | 34 | 0.0 | 4.0 | 0.00 | 0.01 | 0.00 | 85 | 1017.6 |
| 20260906123520 | 50 | 53 | 2.0 | 4.0 | 0.00 | 0.01 | 0.00 | 85 | 1017.8 |
| 20260906123041 | 50 | 86 | 2.0 | 4.0 | 0.00 | 0.01 | 0.00 | 85 | 1017.8 |
| 20260906122529 | 50 | 66 | 1.0 | 2.0 | 0.00 | 0.01 | 0.00 | 85 | 1017.7 |
| 20260906122019 | 50 | 67 | 0.0 | 3.0 | 0.00 | 0.01 | 0.00 | 85 | 1017.8 |
| 20260906121536 | 50 | 43 | 0.0 | 3.0 | 0.00 | 0.01 | 0.00 | 85 | 1017.7 |
| 20260906121023 | 50 | 57 | 0.0 | 0.0 | 0.00 | 0.01 | 0.00 | 85 | 1017.8 |
| 20260906120535 | 50 | 5 | 0.0 | 0.0 | 0.00 | 0.01 | 0.00 | 86 | 1017.9 |
| 20260906120030 | 50 | 5 | 0.0 | 0.0 | 0.00 | 0.01 | 0.00 | 85 | 1017.9 |
| 20260906115518 | 50 | 5 | 0.0 | 0.0 | 0.00 | 0.01 | 0.00 | 84 | 1017.9 |
| 20260906115028 | 50 | 9 | 0.0 | 0.0 | 0.00 | 0.01 | 0.00 | 85 | 1018.0 |
| 20260906114522 | 50 | 9 | 0.0 | 1.0 | 0.00 | 0.01 | 0.00 | 85 | 1018.1 |
| 20260906114035 | 50 | 9 | 0.0 | 3.0 | 0.00 | 0.01 | 0.00 | 84 | 1018.1 |
| 20260906113522 | 50 | 74 | 0.0 | 3.0 | 0.00 | 0.01 | 0.00 | 84 | 1018.2 |
| 20260906113019 | 50 | 62 | 0.0 | 4.0 | 0.00 | 0.01 | 0.00 | 84 | 1018.1 |
| 20260906112527 | 50 | 59 | 1.0 | 4.0 | 0.00 | 0.01 | 0.00 | 84 | 1018.1 |
| 20260906112040 | 50 | 72 | 1.0 | 3.0 | 0.00 | 0.01 | 0.00 | 85 | 1018.3 |
| 20260906111538 | 50 | 101 | 1.0 | 6.0 | 0.00 | 0.01 | 0.00 | 84 | 1018.4 |
| 20260906111026 | 51 | 265 | 1.0 | 6.0 | 0.00 | 0.01 | 0.00 | 84 | 1018.4 |
| 20260906110536 | 51 | 258 | 3.0 | 6.0 | 0.00 | 0.01 | 0.00 | 86 | 1018.3 |
| 20260906110029 | 51 | 248 | 0.0 | 1.0 | 0.00 | 0.01 | 0.00 | 84 | 1018.4 |
| 20260906105517 | 51 | 254 | 0.0 | 2.0 | 0.00 | 0.01 | 0.00 | 85 | 1018.4 |
| 20260906105031 | 50 | 253 | 0.0 | 3.0 | 0.00 | 0.01 | 0.00 | 86 | 1018.4 |
| 20260906104537 | 50 | 267 | 0.0 | 4.0 | 0.00 | 0.01 | 0.00 | 85 | 1018.6 |
| 20260906104034 | 50 | 262 | 1.0 | 3.0 | 0.00 | 0.01 | 0.00 | 85 | 1018.6 |
| 20260906103522 | 51 | 258 | 0.0 | 3.0 | 0.00 | 0.01 | 0.00 | 85 | 1018.7 |
| 20260906103039 | 51 | 309 | 0.0 | 0.0 | 0.00 | 0.01 | 0.00 | 85 | 1018.7 |
| 20260906102533 | 51 | 309 | 0.0 | 4.0 | 0.00 | 0.01 | 0.00 | 84 | 1018.6 |
| 20260906102021 | 51 | 309 | 0.0 | 4.0 | 0.00 | 0.01 | 0.00 | 85 | 1018.7 |
| 20260906101537 | 50 | 264 | 2.0 | 3.0 | 0.00 | 0.01 | 0.00 | 84 | 1018.7 |
| 20260906101025 | 50 | 253 | 0.0 | 4.0 | 0.00 | 0.01 | 0.00 | 84 | 1018.8 |
| 20260906100535 | 50 | 254 | 0.0 | 4.0 | 0.00 | 0.01 | 0.00 | 85 | 1018.8 |
| 20260906100030 | 50 | 265 | 1.0 | 4.0 | 0.00 | 0.01 | 0.00 | 85 | 1018.8 |
| 20260906095523 | 51 | 237 | 2.0 | 4.0 | 0.00 | 0.01 | 0.00 | 83 | 1018.8 |
| 20260906095031 | 51 | 252 | 0.0 | 2.0 | 0.00 | 0.01 | 0.00 | 81 | 1018.8 |
| 20260906094539 | 51 | 64 | 0.0 | 3.0 | 0.00 | 0.01 | 0.00 | 81 | 1018.6 |
| 20260906094036 | 51 | 65 | 1.0 | 3.0 | 0.00 | 0.01 | 0.00 | 81 | 1018.7 |
| 20260906093529 | 51 | 57 | 0.0 | 3.0 | 0.00 | 0.01 | 0.00 | 82 | 1018.8 |
| 20260906093035 | 51 | 57 | 1.0 | 3.0 | 0.00 | 0.01 | 0.00 | 82 | 1019.0 |
| 20260906092534 | 51 | 280 | 0.0 | 3.0 | 0.00 | 0.01 | 0.00 | 83 | 1019.1 |
| 20260906092026 | 51 | 274 | 0.0 | 1.0 | 0.00 | 0.01 | 0.00 | 84 | 1019.0 |
| 20260906091525 | 51 | 273 | 0.0 | 1.0 | 0.00 | 0.01 | 0.00 | 85 | 1019.1 |
| 20260906091027 | 51 | 273 | 0.0 | 4.0 | 0.00 | 0.01 | 0.00 | 85 | 1019.2 |
| 20260906090538 | 51 | 273 | 1.0 | 4.0 | 0.00 | 0.01 | 0.00 | 85 | 1019.2 |
| 20260906090033 | 51 | 269 | 0.0 | 0.0 | 0.00 | 0.01 | 0.00 | 84 | 1019.2 |
| 20260906085523 | 51 | 269 | 0.0 | 0.0 | 0.00 | 0.01 | 0.00 | 84 | 1019.1 |
| 20260906085035 | 52 | 269 | 0.0 | 0.0 | 0.00 | 0.01 | 0.00 | 84 | 1019.0 |
| 20260906084532 | 52 | 269 | 0.0 | 0.0 | 0.00 | 0.01 | 0.00 | 82 | 1018.9 |
| 20260906084021 | 52 | 269 | 0.0 | 0.0 | 0.00 | 0.01 | 0.00 | 82 | 1019.0 |
| 20260906083530 | 52 | 269 | 0.0 | 0.0 | 0.00 | 0.01 | 0.00 | 82 | 1018.8 |
| 20260906083028 | 51 | 268 | 0.0 | 0.0 | 0.00 | 0.01 | 0.00 | 83 | 1018.8 |
| 20260906082534 | 51 | 268 | 0.0 | 2.0 | 0.00 | 0.01 | 0.00 | 83 | 1018.8 |
| 20260906082025 | 51 | 268 | 0.0 | 4.0 | 0.00 | 0.01 | 0.00 | 81 | 1018.9 |
| 20260906081523 | 52 | 259 | 2.0 | 4.0 | 0.00 | 0.01 | 0.00 | 81 | 1019.0 |
| 20260906081030 | 53 | 283 | 0.0 | 4.0 | 0.00 | 0.01 | 0.00 | 78 | 1019.0 |
| 20260906080520 | 53 | 336 | 2.0 | 4.0 | 0.00 | 0.01 | 0.00 | 79 | 1019.0 |
| 20260906080034 | 53 | 329 | 1.0 | 4.0 | 0.00 | 0.01 | 0.00 | 80 | 1019.0 |
| 20260906075524 | 52 | 320 | 2.0 | 3.0 | 0.00 | 0.01 | 0.00 | 82 | 1019.2 |
| 20260906075033 | 52 | 270 | 0.0 | 3.0 | 0.00 | 0.01 | 0.00 | 82 | 1019.3 |
| 20260906074531 | 52 | 277 | 1.0 | 3.0 | 0.00 | 0.01 | 0.00 | 81 | 1019.5 |
| 20260906074023 | 52 | 251 | 0.0 | 0.0 | 0.00 | 0.01 | 0.00 | 81 | 1019.5 |
| 20260906073534 | 52 | 275 | 0.0 | 4.0 | 0.00 | 0.01 | 0.00 | 81 | 1019.5 |
| 20260906073032 | 53 | 263 | 2.0 | 4.0 | 0.00 | 0.01 | 0.00 | 80 | 1019.4 |
| 20260906072520 | 53 | 275 | 1.0 | 3.0 | 0.00 | 0.01 | 0.00 | 78 | 1019.7 |
| 20260906072029 | 54 | 263 | 1.0 | 3.0 | 0.00 | 0.01 | 0.00 | 79 | 1019.7 |
| 20260906071526 | 54 | 271 | 0.0 | 0.0 | 0.00 | 0.01 | 0.00 | 74 | 1019.7 |
| 20260906071038 | 54 | 271 | 0.0 | 0.0 | 0.00 | 0.01 | 0.00 | 74 | 1019.8 |
| 20260906070527 | 54 | 271 | 0.0 | 0.0 | 0.00 | 0.01 | 0.00 | 72 | 1019.9 |
| 20260906070024 | 54 | 271 | 0.0 | 0.0 | 0.00 | 0.01 | 0.01 | 72 | 1019.8 |
| 20260906065530 | 54 | 271 | 0.0 | 0.0 | 0.00 | 0.01 | 0.01 | 74 | 1019.9 |
| 20260906065023 | 54 | 271 | 0.0 | 0.0 | 0.00 | 0.01 | 0.01 | 77 | 1019.9 |
| 20260906064536 | 54 | 270 | 0.0 | 0.0 | 0.00 | 0.01 | 0.01 | 77 | 1019.9 |
| 20260906064027 | 54 | 270 | 0.0 | 0.0 | 0.00 | 0.01 | 0.01 | 77 | 1019.9 |
| 20260906063517 | 54 | 270 | 0.0 | 1.0 | 0.00 | 0.01 | 0.01 | 78 | 1019.9 |
| 20260906063036 | 54 | 270 | 0.0 | 4.0 | 0.00 | 0.01 | 0.01 | 77 | 1019.9 |
| 20260906062525 | 55 | 270 | 1.0 | 4.0 | 0.00 | 0.01 | 0.01 | 77 | 1019.9 |
| 20260906062034 | 55 | 261 | 1.0 | 3.0 | 0.00 | 0.01 | 0.01 | 78 | 1020.0 |
| 20260906061529 | 55 | 271 | 0.0 | 3.0 | 0.00 | 0.01 | 0.01 | 77 | 1019.9 |
| 20260906061018 | 55 | 274 | 0.0 | 3.0 | 0.00 | 0.01 | 0.01 | 75 | 1020.0 |
| 20260906060528 | 55 | 264 | 1.0 | 3.0 | 0.00 | 0.01 | 0.01 | 76 | 1020.0 |
| 20260906060021 | 56 | 258 | 1.0 | 2.0 | 0.00 | 0.01 | 0.01 | 75 | 1020.1 |
| 20260906055531 | 56 | 67 | 0.0 | 0.0 | 0.00 | 0.01 | 0.01 | 71 | 1020.1 |
| 20260906055020 | 57 | 63 | 0.0 | 1.0 | 0.00 | 0.01 | 0.01 | 64 | 1020.1 |
| 20260906054558 | 57 | 63 | 0.0 | 3.0 | 0.00 | 0.01 | 0.01 | 63 | 1020.1 |
| 20260906054026 | 57 | 63 | 1.0 | 3.0 | 0.00 | 0.01 | 0.01 | 65 | 1020.1 |
| 20260906053537 | 57 | 64 | 0.0 | 3.0 | 0.00 | 0.01 | 0.01 | 65 | 1020.1 |
| 20260906053031 | 57 | 64 | 0.0 | 2.0 | 0.00 | 0.01 | 0.01 | 65 | 1020.3 |
| 20260906052522 | 58 | 63 | 0.0 | 2.0 | 0.00 | 0.01 | 0.01 | 67 | 1020.3 |
| 20260906052035 | 58 | 211 | 0.0 | 1.0 | 0.00 | 0.01 | 0.01 | 69 | 1020.3 |
| 20260906051534 | 58 | 211 | 0.0 | 2.0 | 0.00 | 0.01 | 0.01 | 70 | 1020.4 |
| 20260906051035 | 59 | 225 | 1.0 | 2.0 | 0.00 | 0.01 | 0.01 | 68 | 1020.4 |
| 20260906050523 | 60 | 220 | 0.0 | 2.0 | 0.00 | 0.01 | 0.01 | 61 | 1020.4 |
| 20260906050028 | 60 | 346 | 0.0 | 0.0 | 0.00 | 0.01 | 0.01 | 58 | 1020.4 |
| 20260906045530 | 60 | 342 | 0.0 | 0.0 | 0.00 | 0.01 | 0.01 | 57 | 1020.4 |
| 20260906045018 | 61 | 342 | 0.0 | 3.0 | 0.00 | 0.01 | 0.01 | 56 | 1020.4 |
| 20260906044536 | 61 | 342 | 0.0 | 4.0 | 0.00 | 0.01 | 0.01 | 55 | 1020.4 |
| 20260906044026 | 61 | 330 | 2.0 | 5.0 | 0.00 | 0.01 | 0.01 | 55 | 1020.4 |
| 20260906043534 | 62 | 360 | 3.0 | 5.0 | 0.00 | 0.01 | 0.01 | 54 | 1020.5 |
| 20260906043028 | 62 | 326 | 1.0 | 7.0 | 0.00 | 0.01 | 0.01 | 55 | 1020.5 |
| 20260906042537 | 62 | 5 | 2.0 | 7.0 | 0.00 | 0.01 | 0.01 | 51 | 1020.5 |
| 20260906042025 | 62 | 57 | 3.0 | 8.0 | 0.00 | 0.01 | 0.01 | 51 | 1020.5 |
| 20260906041524 | 62 | 355 | 3.0 | 8.0 | 0.00 | 0.01 | 0.01 | 53 | 1020.4 |
| 20260906041029 | 62 | 46 | 1.0 | 5.0 | 0.00 | 0.01 | 0.01 | 54 | 1020.4 |
| 20260906040523 | 61 | 15 | 0.0 | 0.0 | 0.00 | 0.01 | 0.01 | 54 | 1020.3 |
| 20260906040020 | 62 | 355 | 0.0 | 0.0 | 0.00 | 0.01 | 0.01 | 54 | 1020.4 |
| 20260906035530 | 62 | 344 | 0.0 | 0.0 | 0.00 | 0.01 | 0.01 | 53 | 1020.4 |
| 20260906035020 | 62 | 5 | 0.0 | 0.0 | 0.00 | 0.01 | 0.01 | 52 | 1020.4 |
| 20260906034521 | 62 | 5 | 0.0 | 3.0 | 0.00 | 0.01 | 0.01 | 51 | 1020.5 |
| 20260906034027 | 62 | 355 | 0.0 | 5.0 | 0.00 | 0.01 | 0.01 | 49 | 1020.4 |
| 20260906033517 | 63 | 61 | 2.0 | 5.0 | 0.00 | 0.01 | 0.01 | 49 | 1020.4 |
| 20260906033036 | 63 | 52 | 3.0 | 6.0 | 0.00 | 0.01 | 0.01 | 48 | 1020.3 |
| 20260906032523 | 63 | 53 | 3.0 | 6.0 | 0.00 | 0.01 | 0.01 | 48 | 1020.3 |
| 20260906032034 | 63 | 82 | 3.0 | 6.0 | 0.00 | 0.01 | 0.01 | 47 | 1020.4 |
| 20260906031558 | 63 | 76 | 3.0 | 4.0 | 0.00 | 0.01 | 0.01 | 47 | 1020.3 |
| 20260906031022 | 63 | 49 | 1.0 | 4.0 | 0.00 | 0.01 | 0.01 | 47 | 1020.3 |
| 20260906030529 | 64 | 65 | 1.0 | 4.0 | 0.00 | 0.01 | 0.01 | 47 | 1020.3 |
| 20260906030022 | 64 | 98 | 1.0 | 4.0 | 0.00 | 0.01 | 0.01 | 46 | 1020.1 |
| 20260906025537 | 64 | 91 | 0.0 | 3.0 | 0.00 | 0.01 | 0.01 | 46 | 1020.1 |
| 20260906025030 | 64 | 15 | 0.0 | 4.0 | 0.00 | 0.01 | 0.01 | 46 | 1020.1 |
| 20260906024546 | 64 | 294 | 0.0 | 8.0 | 0.00 | 0.01 | 0.01 | 45 | 1020.0 |
| 20260906024031 | 65 | 290 | 3.0 | 8.0 | 0.00 | 0.01 | 0.01 | 45 | 1019.9 |
| 20260906023525 | 65 | 324 | 3.0 | 10.0 | 0.00 | 0.01 | 0.01 | 45 | 1019.9 |
| 20260906023020 | 65 | 296 | 4.0 | 10.0 | 0.00 | 0.01 | 0.01 | 45 | 1019.9 |
| 20260906022528 | 65 | 310 | 2.0 | 11.0 | 0.00 | 0.01 | 0.01 | 45 | 1019.9 |
| 20260906022037 | 66 | 355 | 4.0 | 11.0 | 0.00 | 0.01 | 0.01 | 43 | 1020.0 |
| 20260906021534 | 66 | 324 | 3.0 | 11.0 | 0.00 | 0.01 | 0.01 | 43 | 1020.1 |
| 20260906021021 | 66 | 321 | 2.0 | 11.0 | 0.00 | 0.01 | 0.01 | 42 | 1019.9 |
| 20260906020534 | 67 | 321 | 4.0 | 9.0 | 0.00 | 0.01 | 0.01 | 41 | 1020.0 |
| 20260906020024 | 67 | 330 | 3.0 | 6.0 | 0.00 | 0.01 | 0.01 | 41 | 1020.0 |
| 20260906015534 | 67 | 302 | 2.0 | 8.0 | 0.00 | 0.01 | 0.01 | 42 | 1019.8 |
| 20260906015027 | 67 | 281 | 5.0 | 10.0 | 0.00 | 0.01 | 0.01 | 42 | 1019.8 |
| 20260906014523 | 67 | 321 | 6.0 | 10.0 | 0.00 | 0.01 | 0.01 | 41 | 1019.6 |
| 20260906014036 | 67 | 313 | 4.0 | 6.0 | 0.00 | 0.01 | 0.01 | 41 | 1019.6 |
| 20260906013523 | 67 | 309 | 2.0 | 6.0 | 0.00 | 0.01 | 0.01 | 41 | 1019.6 |
| 20260906013020 | 67 | 306 | 4.0 | 8.0 | 0.00 | 0.01 | 0.01 | 40 | 1019.4 |
| 20260906012527 | 68 | 345 | 3.0 | 8.0 | 0.00 | 0.01 | 0.01 | 39 | 1019.6 |
| 20260906012017 | 68 | 311 | 3.0 | 8.0 | 0.00 | 0.01 | 0.01 | 39 | 1019.4 |
| 20260906011534 | 68 | 291 | 2.0 | 8.0 | 0.00 | 0.01 | 0.01 | 40 | 1019.5 |
| 20260906011021 | 68 | 303 | 2.0 | 8.0 | 0.00 | 0.01 | 0.01 | 39 | 1019.6 |
| 20260906010532 | 69 | 303 | 4.0 | 8.0 | 0.00 | 0.01 | 0.01 | 37 | 1019.6 |
| 20260906010041 | 69 | 284 | 2.0 | 8.0 | 0.00 | 0.01 | 0.01 | 37 | 1019.5 |
| 20260906005535 | 69 | 321 | 3.0 | 7.0 | 0.00 | 0.01 | 0.01 | 36 | 1019.6 |
| 20260906005025 | 69 | 290 | 4.0 | 6.0 | 0.00 | 0.01 | 0.01 | 35 | 1019.6 |
| 20260906004520 | 69 | 294 | 3.0 | 7.0 | 0.00 | 0.01 | 0.01 | 35 | 1019.4 |
| 20260906004032 | 69 | 292 | 3.0 | 7.0 | 0.00 | 0.01 | 0.01 | 35 | 1019.5 |
| 20260906003525 | 70 | 290 | 2.0 | 5.0 | 0.00 | 0.01 | 0.01 | 35 | 1019.4 |
| 20260906003021 | 70 | 310 | 1.0 | 6.0 | 0.00 | 0.01 | 0.01 | 36 | 1019.2 |
| 20260906002529 | 70 | 302 | 2.0 | 6.0 | 0.00 | 0.01 | 0.01 | 38 | 1018.9 |
| 20260906002024 | 70 | 240 | 2.0 | 6.0 | 0.00 | 0.01 | 0.01 | 40 | 1019.1 |
| 20260906001522 | 70 | 266 | 3.0 | 5.0 | 0.00 | 0.01 | 0.01 | 37 | 1019.0 |
| 20260906001026 | 70 | 254 | 2.0 | 6.0 | 0.00 | 0.01 | 0.01 | 38 | 1019.0 |
| 20260906000537 | 70 | 255 | 2.0 | 6.0 | 0.00 | 0.01 | 0.01 | 36 | 1019.0 |
| 20260906000030 | 70 | 252 | 1.0 | 4.0 | 0.00 | 0.01 | 0.01 | 36 | 1019.0 |
| 20260905235519 | 70 | 265 | 2.0 | 6.0 | 0.00 | 0.01 | 0.01 | 34 | 1019.1 |
| 20260905235031 | 70 | 263 | 2.0 | 6.0 | 0.00 | 0.01 | 0.01 | 34 | 1019.2 |
| 20260905234525 | 70 | 267 | 2.0 | 4.0 | 0.00 | 0.01 | 0.01 | 35 | 1019.3 |
| 20260905234035 | 70 | 279 | 2.0 | 4.0 | 0.00 | 0.01 | 0.01 | 39 | 1019.3 |
| 20260905233523 | 70 | 237 | 1.0 | 4.0 | 0.00 | 0.01 | 0.01 | 34 | 1019.4 |
| 20260905233019 | 70 | 254 | 1.0 | 5.0 | 0.00 | 0.01 | 0.01 | 34 | 1019.4 |
| 20260905232533 | 70 | 253 | 2.0 | 5.0 | 0.00 | 0.01 | 0.01 | 33 | 1019.3 |
| 20260905232021 | 70 | 256 | 0.0 | 3.0 | 0.00 | 0.01 | 0.01 | 37 | 1019.3 |
| 20260905231535 | 70 | 254 | 1.0 | 2.0 | 0.00 | 0.01 | 0.01 | 36 | 1019.2 |
| 20260905231025 | 70 | 248 | 0.0 | 0.0 | 0.00 | 0.01 | 0.01 | 34 | 1019.2 |
| 20260905230538 | 70 | 258 | 0.0 | 3.0 | 0.00 | 0.01 | 0.01 | 33 | 1019.2 |
| 20260905230032 | 71 | 239 | 0.0 | 3.0 | 0.00 | 0.01 | 0.01 | 34 | 1019.2 |
| 20260905225538 | 70 | 252 | 0.0 | 0.0 | 0.00 | 0.01 | 0.01 | 36 | 1019.1 |
| 20260905225027 | 70 | 235 | 0.0 | 0.0 | 0.00 | 0.01 | 0.01 | 37 | 1019.1 |
| 20260905224523 | 70 | 247 | 0.0 | 0.0 | 0.00 | 0.01 | 0.01 | 35 | 1019.3 |
| 20260905224030 | 70 | 239 | 0.0 | 0.0 | 0.00 | 0.01 | 0.01 | 33 | 1019.4 |
| 20260905223521 | 70 | 219 | 0.0 | 0.0 | 0.00 | 0.01 | 0.01 | 33 | 1019.4 |
| 20260905223018 | 70 | 220 | 0.0 | 0.0 | 0.00 | 0.01 | 0.01 | 35 | 1019.5 |
| 20260905222526 | 71 | 220 | 0.0 | 0.0 | 0.00 | 0.01 | 0.01 | 37 | 1019.6 |
| 20260905222020 | 70 | 213 | 0.0 | 0.0 | 0.00 | 0.01 | 0.01 | 38 | 1019.7 |
| 20260905221532 | 70 | 187 | 0.0 | 0.0 | 0.00 | 0.01 | 0.01 | 36 | 1019.7 |
| 20260905221024 | 70 | 180 | 0.0 | 0.0 | 0.00 | 0.01 | 0.01 | 35 | 1019.6 |
| 20260905220537 | 70 | 164 | 0.0 | 0.0 | 0.00 | 0.01 | 0.01 | 34 | 1019.6 |
| 20260905220033 | 70 | 171 | 0.0 | 0.0 | 0.00 | 0.01 | 0.01 | 33 | 1019.6 |
| 20260905215519 | 70 | 171 | 0.0 | 0.0 | 0.00 | 0.01 | 0.01 | 37 | 1019.7 |
| 20260905215031 | 71 | 111 | 0.0 | 0.0 | 0.00 | 0.01 | 0.01 | 36 | 1019.7 |
| 20260905214524 | 71 | 150 | 0.0 | 3.0 | 0.00 | 0.01 | 0.01 | 38 | 1019.9 |
| 20260905214035 | 71 | 164 | 0.0 | 3.0 | 0.00 | 0.01 | 0.01 | 36 | 1020.0 |
| 20260905213525 | 71 | 194 | 1.0 | 3.0 | 0.00 | 0.01 | 0.01 | 38 | 1020.0 |
| 20260905213020 | 71 | 180 | 1.0 | 3.0 | 0.00 | 0.01 | 0.01 | 39 | 1020.1 |
| 20260905212531 | 70 | 204 | 2.0 | 3.0 | 0.00 | 0.01 | 0.01 | 39 | 1020.1 |
| 20260905212021 | 70 | 203 | 1.0 | 3.0 | 0.00 | 0.01 | 0.01 | 41 | 1020.1 |
| 20260905211558 | 70 | 205 | 0.0 | 4.0 | 0.00 | 0.01 | 0.01 | 40 | 1020.1 |
| 20260905211025 | 70 | 205 | 2.0 | 4.0 | 0.00 | 0.01 | 0.01 | 39 | 1020.2 |
| 20260905210520 | 70 | 208 | 2.0 | 4.0 | 0.00 | 0.01 | 0.01 | 40 | 1020.4 |
| 20260905210042 | 70 | 217 | 3.0 | 4.0 | 0.00 | 0.01 | 0.01 | 37 | 1020.3 |
| 20260905205522 | 70 | 217 | 2.0 | 5.0 | 0.00 | 0.01 | 0.01 | 36 | 1020.3 |
| 20260905205035 | 70 | 216 | 3.0 | 5.0 | 0.00 | 0.01 | 0.01 | 38 | 1020.4 |
| 20260905204529 | 70 | 213 | 3.0 | 5.0 | 0.00 | 0.01 | 0.01 | 38 | 1020.4 |
| 20260905204036 | 69 | 215 | 2.0 | 4.0 | 0.00 | 0.01 | 0.01 | 40 | 1020.3 |
| 20260905203526 | 69 | 198 | 2.0 | 4.0 | 0.00 | 0.01 | 0.01 | 38 | 1020.4 |
| 20260905203024 | 69 | 223 | 2.0 | 3.0 | 0.00 | 0.01 | 0.01 | 40 | 1020.3 |
| 20260905202536 | 69 | 225 | 2.0 | 4.0 | 0.00 | 0.01 | 0.01 | 40 | 1020.4 |
| 20260905202024 | 69 | 202 | 2.0 | 5.0 | 0.00 | 0.01 | 0.01 | 41 | 1020.4 |
| 20260905201530 | 68 | 217 | 2.0 | 5.0 | 0.00 | 0.01 | 0.01 | 41 | 1020.4 |
| 20260905201028 | 68 | 237 | 2.0 | 4.0 | 0.00 | 0.01 | 0.01 | 42 | 1020.4 |
| 20260905200544 | 68 | 326 | 1.0 | 5.0 | 0.00 | 0.01 | 0.01 | 45 | 1020.7 |
| 20260905200036 | 68 | 297 | 0.0 | 5.0 | 0.00 | 0.01 | 0.01 | 45 | 1020.7 |
| 20260905195525 | 68 | 340 | 1.0 | 5.0 | 0.00 | 0.01 | 0.01 | 42 | 1020.7 |